Regional Weather Roundup
Issued by NWS Charleston, SC

Current Version | Previous Version | Text Only | Print | Product List | Glossary Off
Versions: 1 2 3 4 5 6 7 8 9 10 11 12 13 14 15 16 17 18 19 20 21 22 23 24 25 26 27 28 29 30 31 32 33 34 35 36 37 38 39 40 41 42 43 44 45 46 47 48 49 50
000 ASUS42 KCHS 011212 RWRCHS REGIONAL WEATHER ROUNDUP NATIONAL WEATHER SERVICE CHARLESTON SC 800 AM EDT SAT AUG 01 2015 NOTE: "FAIR" INDICATES FEW OR NO CLOUDS BELOW 12,000 FEET WITH NO SIGNIFICANT WEATHER AND/OR OBSTRUCTIONS TO VISIBILITY. NOT ALL STATIONS ARE QUALITY CONTROLLED BY THE NATIONAL WEATHER SERVICE. USE DATA WITH CAUTION...ESPECIALLY DEWPOINT OBSERVATIONS. SCZ027-030-031-034>040-042>050-011300- ...SOUTHEAST SOUTH CAROLINA... CITY SKY/WX TMP DP RH WIND PRES REMARKS N CHARLESTON CLOUDY 79 73 82 CALM 29.92R 6HR MIN TEMP: 76; 6HR MAX TEMP: 79; WATERFRONT PRK N/A 79 77 94 CALM 29.88R MOUNT PLEASANT PTSUNNY 79 75 89 NW3 29.92R JOHNS ISLAND FAIR 77 75 94 CALM 29.92R PINOPOLIS NOT AVBL MONCKS CORNER FAIR 77 73 88 CALM 29.92R FOG SUMMERVILLE FAIR 75 75 100 CALM 29.93R BEAUFORT MCAS SUNNY 77 74 90 SW3 29.92R 6HR MIN TEMP: 76; 6HR MAX TEMP: 79; BEAUFORT ARPT PTSUNNY 77 77 100 CALM 29.92R FOG HILTON HEAD IS MOSUNNY 77 73 88 CALM 29.93R HAZE WALTERBORO SUNNY 77 73 88 CALM 29.93R ALLENDALE PTSUNNY 75 73 94 CALM 29.92R ...SOUTHERN MIDLANDS AND PEE DEE... CITY SKY/WX TMP DP RH WIND PRES REMARKS GEORGETOWN NOT AVBL KINGSTREE NOT AVBL ORANGEBURG MOSUNNY 75 73 93 CALM 29.93R 6HR MIN TEMP: 74; 6HR MAX TEMP: 76; 6HR PCP: TRACE; BARNWELL FAIR 75 73 94 CALM 29.94R AIKEN FAIR 73 70 88 N6 29.97R MANNING RAIN 73 72 94 CALM 29.92S COLUMBIA SUNNY 79 63 57 NE6 29.93R 6HR MIN TEMP: 76; 6HR MAX TEMP: 79; SUMTER SUNNY 77 67 72 NE6 29.91R 6HR MIN TEMP: 73; 6HR MAX TEMP: 77; FLORENCE SUNNY 77 72 84 N7 29.93R 6HR MIN TEMP: 73; 6HR MAX TEMP: 77; MYRTLE BEACH MOSUNNY 75 72 88 NW7 29.93S N MYRTLE BEACH MOSUNNY 75 73 93 CALM 29.92R 6HR MIN TEMP: 74; 6HR MAX TEMP: 76; 6HR PCP: TRACE; $$ GAZ063-065-086>088-099>101-113>116-118-119-134>141-150-011300- ...SOUTHEAST GEORGIA... CITY SKY/WX TMP DP RH WIND PRES REMARKS SAVANNAH ARPT CLOUDY 74 73 97 CALM 29.93R FOG 6HR MIN TEMP: 74; 6HR MAX TEMP: 76; HUNTER AAF SUNNY 76 76 100 SW2 29.91R 6HR MIN TEMP: 73; 6HR MAX TEMP: 76; FORT STEWART NOT AVBL STATESBORO FOG 73 32 21 CALM 29.93R VSB 3/4 SYLVANIA FOG 74 74 100 CALM 29.94R VSB 1/2 CLAXTON NOT AVBL ...CSRA...CENTRAL AND FAR SOUTHEAST GEORGIA... CITY SKY/WX TMP DP RH WIND PRES REMARKS THOMSON MOSUNNY 76 75 99 CALM 29.99R AUGUSTA-BUSH SUNNY 75 73 93 CALM 29.93R 6HR MIN TEMP: 72; 6HR MAX TEMP: 75; AUGUSTA-DANIEL SUNNY 77 73 87 CALM 29.94R SWAINSBORO FOG N/A N/A N/A CALM 29.95R VSB 1/2 VIDALIA CLOUDY 73 72 94 CALM 29.94R FOG EASTMAN FOG 74 74 100 CALM 29.96R VSB<1/4 HAZLEHURST CLOUDY 77 77 100 S3 29.93R ALMA CLOUDY 75 74 96 CALM 29.93R FOG 6HR MIN TEMP: 74; 6HR MAX TEMP: 75; WAYCROSS FOG 78 78 100 CALM N/A VSB 3/4 JESUP FOG 77 75 94 CALM 29.94R VSB 1/4 BAXLEY CLOUDY 77 73 88 CALM 29.93R FOG BRUNSWICK CLOUDY 75 73 94 SW7 29.93R SAINT SIMONS CLOUDY 77 75 93 SW9 29.92R 6HR MIN TEMP: 76; 6HR MAX TEMP: 77; $$ SCZ027-028-034-036>038-045-046-048>050-GAZ119-141-011300- ...LAKE AND SUPPLEMENTAL COASTAL OBSERVATIONS... STATION/POSITION TIME TEMP WIND PRES WAVE SWELL AIR SEA DIR/SP/G HT/PER HT/PER/DIR (UTC) (F) (DEG/KT/KT) (MB) (FT/S) (FT/S/D) UPR LAKE MARION NOT AVBL WINYAH BAY NOT AVBL LAKE MURRAY 1100 76 20/ 3/ 8 1012.9R ACE BASIN NERRS NOT AVBL FORT PULASKI 1100 76 86 240/ 3/ 4 1013.2F SAPELO ISLAND 1100 78 220/ 6 1013.0R $$ ANZ835-935-AMZ111-154-330-350-352-354-370-450-454-472-011300- ...C-MAN AND BUOY OBSERVATIONS... STATION/POSITION TIME TEMP WIND PRES WAVE SWELL AIR SEA DIR/SP/G HT/PER HT/PER/DIR (UTC) (F) (DEG/KT/KT) (MB) (FT/S) (FT/S/D) BUOY 41004 1150 82 84 250/ 14/ 17 1012.2R 4/ 7 3/ 7 BUOY 41008 1150 80 82 240/ 10/ 12 1013.1R 3/ 6 2/160/ 6 FOLLY BEACH CMAN 1100 77 260/ 2/ 3 1012.9R CAPERS NEARSHORE 1108 80 90/ 2/ 4 1012.6R FRIPP NEARSHORE 1100 80 320/ 6/ 8 1012.4R STATION/POSITION TIME TEMP WIND PRES WAVE SWELL AIR SEA DIR/SP/G HT/PER HT/PER/DIR (UTC) (F) (DEG/KT/KT) (MB) (FT/S) (FT/S/D) 5E ST. MARYS GA 1121 83 N/A 3/ 5 FRYING PAN BUOY 1150 79 83 190/ 4/ 6 1013.7R 5/ 7 5/160/ 7 BUOY 41025 1150 80 85 120/ 10/ 12 1013.3R 4/ 7 3/160/ 7 CAPE LOOKOUT NC 1100 76 140/ 11/ 13 1012.8R BUOY 41002 1150 82 81 230/ 17/ 19 1015.4R 7/ 7 2/150/11 BUOY 41010 1120 80 84 250/ 25/ 29 1015.2R ST AUGUSTINE FL 1200 77 81 210/ 8/ 9 1014.9R $$

USA.gov is the U.S. government's official web portal to all federal, state and local government web resources and services.